Weather History for Gulf Shores, AL

Change the Weather History Date:

Saturday, May 25, 2013

  Actual Average (KPNS) Record (KPNS)
Temperature  
Mean Temperature 71 °F 77 °F  
Max Temperature 82 °F 85 °F 94 °F (1953)
Min Temperature 60 °F 68 °F 53 °F (1979)
Cooling Degree Days 6 12  
Month to date cooling degree days 222  
Year to date cooling degree days 370  
Growing Degree Days 21 (Base 50)    
Moisture  
Dew Point 51 °F    
Average Humidity 53    
Maximum Humidity 94    
Minimum Humidity 25    
Precipitation  
Precipitation 0.00 in 0.14 in 1.95 in (1997)
Month to date precipitation 3.32  
Year to date precipitation 23.14  
Sea Level Pressure  
Sea Level Pressure 30.19 in    
Wind  
Wind Speed 6 mph (ENE)    
Max Wind Speed 15 mph    
Max Gust Speed 17 mph    
Visibility 10 miles    
Events      
T = Trace of Precipitation, MM = Missing Value Source: NWS Daily Summary

Daily Weather History Graph

Daily Weather History Graph

Search for Another Location

Airport:

Trip Planner

Search our weather history database for the weather conditions in past years. The results will help you decide how hot, cold, wet, or windy it might be!

Date:

Astronomy

May. 25, 2013 Rise Set
Actual Time 5:51 AM CDT 7:44 PM CDT
Civil Twilight 5:24 AM CDT 8:10 PM CDT
Nautical Twilight 4:52 AM CDT 8:43 PM CDT
Astronomical Twilight 4:17 AM CDT 9:17 PM CDT
Moon 8:32 PM CDT (5/25) 6:16 AM CDT (5/25)
Length of Visible Light 14h 46m
Length of Day
13h 52m
Full, 100% of the Moon is Illuminated
May 25
Full
May 31
Last Quarter
Jun 8
New
Jun 16
First Quarter
Jun 23
Full

Hourly Weather History & Observations

Time (CDT) Temp. Heat Index Dew Point Humidity Pressure Visibility Wind Dir Wind Speed Gust Speed Precip Events Conditions
12:15 AM 68.0 °F - 50.0 °F 52% 30.16 in 10.0 mi Calm Calm - N/A   Clear
12:35 AM 68.0 °F - 50.0 °F 52% 30.17 in 10.0 mi NNE 3.5 mph - N/A   Clear
12:55 AM 66.2 °F - 50.0 °F 56% 30.16 in 10.0 mi NNE 5.8 mph - N/A   Clear
1:15 AM 64.4 °F - 50.0 °F 59% 30.16 in 10.0 mi NNE 4.6 mph - N/A   Clear
1:35 AM 64.4 °F - 50.0 °F 59% 30.16 in 10.0 mi NNE 4.6 mph - N/A   Clear
1:55 AM 64.4 °F - 50.0 °F 59% 30.15 in 10.0 mi NNE 5.8 mph - N/A   Clear
2:15 AM 64.4 °F - 50.0 °F 59% 30.15 in 10.0 mi NE 6.9 mph - N/A   Clear
2:35 AM 64.4 °F - 50.0 °F 59% 30.15 in 10.0 mi NNE 5.8 mph - N/A   Clear
2:55 AM 64.4 °F - 50.0 °F 59% 30.15 in 10.0 mi NNE 6.9 mph - N/A   Clear
3:15 AM 64.4 °F - 48.2 °F 56% 30.15 in 10.0 mi NNE 5.8 mph - N/A   Clear
3:35 AM 62.6 °F - 50.0 °F 63% 30.16 in 10.0 mi NNE 5.8 mph - N/A   Clear
3:55 AM 62.6 °F - 48.2 °F 59% 30.16 in 10.0 mi NNE 6.9 mph - N/A   Clear
4:15 AM 62.6 °F - 48.2 °F 59% 30.17 in 10.0 mi NNE 6.9 mph - N/A   Clear
4:35 AM 62.6 °F - 48.2 °F 59% 30.18 in 10.0 mi NNE 5.8 mph - N/A   Clear
4:55 AM 62.6 °F - 48.2 °F 59% 30.18 in 10.0 mi NNE 6.9 mph - N/A   Clear
5:15 AM 60.8 °F - 46.4 °F 59% 30.19 in 10.0 mi NNE 5.8 mph - N/A   Clear
5:35 AM 60.8 °F - 46.4 °F 59% 30.19 in 10.0 mi NNE 6.9 mph - N/A   Clear
5:55 AM 60.8 °F - 46.4 °F 59% 30.20 in 10.0 mi NNE 5.8 mph - N/A   Clear
6:15 AM 60.8 °F - 46.4 °F 59% 30.21 in 10.0 mi NNE 8.1 mph - N/A   Clear
6:35 AM 60.8 °F - 46.4 °F 59% 30.21 in 10.0 mi NNE 8.1 mph - N/A   Clear
6:55 AM 60.8 °F - 46.4 °F 59% 30.21 in 10.0 mi NNE 5.8 mph - N/A   Clear
7:15 AM 62.6 °F - 46.4 °F 55% 30.22 in 10.0 mi NNE 5.8 mph - N/A   Clear
7:35 AM 64.4 °F - 46.4 °F 52% 30.22 in 10.0 mi NNE 5.8 mph - N/A   Clear
7:55 AM 68.0 °F - 48.2 °F 49% 30.22 in 10.0 mi NNE 6.9 mph - N/A   Clear
8:15 AM 68.0 °F - 48.2 °F 49% 30.23 in 10.0 mi NE 5.8 mph - N/A   Clear
8:35 AM 69.8 °F - 50.0 °F 49% 30.23 in 10.0 mi NNE 5.8 mph - N/A   Clear
8:55 AM 71.6 °F - 50.0 °F 46% 30.24 in 10.0 mi NE 3.5 mph - N/A   Clear
9:15 AM 73.4 °F - 50.0 °F 44% 30.24 in 10.0 mi East 4.6 mph - N/A   Clear
9:35 AM 77.0 °F - 46.4 °F 34% 30.24 in 10.0 mi ENE 8.1 mph - N/A   Clear
9:55 AM 77.0 °F - 48.2 °F 36% 30.24 in 10.0 mi NE 10.4 mph - N/A   Clear
10:15 AM 78.8 °F - 48.2 °F 34% 30.24 in 10.0 mi NE 9.2 mph - N/A   Clear
10:35 AM 78.8 °F - 46.4 °F 32% 30.24 in 10.0 mi ENE 10.4 mph - N/A   Clear
10:55 AM 80.6 °F - 46.4 °F 30% 30.24 in 10.0 mi ENE 10.4 mph - N/A   Clear
11:15 AM 80.6 °F - 44.6 °F 28% 30.24 in 10.0 mi East 10.4 mph - N/A   Clear
11:35 AM 82.4 °F - 42.8 °F 25% 30.24 in 10.0 mi East 10.4 mph 17.3 mph N/A   Clear
11:55 AM 82.4 °F - 44.6 °F 26% 30.24 in 10.0 mi East 12.7 mph - N/A   Clear
12:15 PM 80.6 °F - 46.4 °F 30% 30.23 in 10.0 mi ESE 13.8 mph - N/A   Clear
12:35 PM 82.4 °F - 46.4 °F 28% 30.23 in 10.0 mi East 10.4 mph - N/A   Clear
12:55 PM 82.4 °F - 48.2 °F 30% 30.22 in 10.0 mi ESE 13.8 mph - N/A   Clear
1:15 PM 82.4 °F - 46.4 °F 28% 30.21 in 10.0 mi ESE 13.8 mph 17.3 mph N/A   Clear
1:35 PM 82.4 °F - 44.6 °F 26% 30.20 in 10.0 mi ESE 15.0 mph - N/A   Clear
1:55 PM 82.4 °F - 46.4 °F 28% 30.20 in 10.0 mi ESE 11.5 mph - N/A   Clear
2:15 PM 82.4 °F - 48.2 °F 30% 30.20 in 10.0 mi SE 12.7 mph - N/A   Clear
2:35 PM 80.6 °F - 50.0 °F 34% 30.19 in 10.0 mi ESE 12.7 mph 17.3 mph N/A   Clear
2:55 PM 80.6 °F - 50.0 °F 34% 30.18 in 10.0 mi ESE 10.4 mph - N/A   Clear
3:15 PM 80.6 °F - 50.0 °F 34% 30.17 in 10.0 mi SSE 12.7 mph 17.3 mph N/A   Clear
3:35 PM 80.6 °F - 50.0 °F 34% 30.17 in 10.0 mi SE 10.4 mph - N/A   Clear
3:55 PM 80.6 °F - 51.8 °F 37% 30.17 in 10.0 mi SE 10.4 mph - N/A   Clear
4:15 PM 80.6 °F 80.3 °F 53.6 °F 39% 30.17 in 10.0 mi SSE 9.2 mph - N/A   Clear
4:35 PM 80.6 °F - 51.8 °F 37% 30.17 in 10.0 mi SSE 8.1 mph - N/A   Clear
4:55 PM 80.6 °F 80.3 °F 53.6 °F 39% 30.17 in 10.0 mi South 9.2 mph - N/A   Clear
5:15 PM 80.6 °F 80.3 °F 53.6 °F 39% 30.17 in 10.0 mi SE 9.2 mph - N/A   Clear
5:35 PM 78.8 °F - 55.4 °F 44% 30.18 in 10.0 mi SSE 6.9 mph - N/A   Clear
5:55 PM 78.8 °F - 57.2 °F 47% 30.18 in 10.0 mi South 5.8 mph - N/A   Clear
6:15 PM 78.8 °F - 57.2 °F 47% 30.18 in 10.0 mi SSE 4.6 mph - N/A   Clear
6:35 PM 77.0 °F - 59.0 °F 54% 30.17 in 10.0 mi SE 4.6 mph - N/A   Clear
6:55 PM 77.0 °F - 59.0 °F 54% 30.17 in 10.0 mi SSE 4.6 mph - N/A   Clear
7:15 PM 77.0 °F - 59.0 °F 54% 30.17 in 10.0 mi SSE 3.5 mph - N/A   Clear
7:35 PM 73.4 °F - 59.0 °F 61% 30.16 in 10.0 mi Calm Calm - N/A   Clear
7:55 PM 71.6 °F - 60.8 °F 69% 30.16 in 10.0 mi Calm Calm - N/A   Clear
8:15 PM 71.6 °F - 60.8 °F 69% 30.17 in 10.0 mi Calm Calm - N/A   Clear
8:35 PM 68.0 °F - 60.8 °F 78% 30.17 in 10.0 mi Calm Calm - N/A   Clear
8:55 PM 64.4 °F - 60.8 °F 88% 30.17 in 10.0 mi Calm Calm - N/A   Clear
9:15 PM 66.2 °F - 60.8 °F 83% 30.18 in 10.0 mi Calm Calm - N/A   Clear
9:35 PM 66.2 °F - 60.8 °F 83% 30.18 in 10.0 mi Calm Calm - N/A   Clear
9:55 PM 64.4 °F - 60.8 °F 88% 30.18 in 10.0 mi Calm Calm - N/A   Clear
10:15 PM 62.6 °F - 59.0 °F 88% 30.18 in 10.0 mi Calm Calm - N/A   Clear
10:35 PM 62.6 °F - 60.8 °F 94% 30.19 in 10.0 mi Calm Calm - N/A   Clear
10:55 PM 62.6 °F - 59.0 °F 88% 30.19 in 7.0 mi Calm Calm - N/A   Clear
11:15 PM 62.6 °F - 59.0 °F 88% 30.19 in 1.5 mi Calm Calm - N/A   Mist
11:35 PM 60.8 °F - 57.2 °F 88% 30.19 in 10.0 mi Calm Calm - N/A   Clear
11:55 PM 60.8 °F - 57.2 °F 88% 30.18 in 4.0 mi Calm Calm - N/A   Clear